Tracking 20241 objects as of 26-Jan-2020
HD Live streaming from Space Station
objects crossing your sky now

COSMOS 2251 DEB

Track COSMOS 2251 DEB now!
10-day predictions


NORAD ID: 38054
Int'l Code: 1993-036BRL
Perigee: 790.3 km
Apogee: 1,370.5 km
Inclination: 74.0 °
Period: 106.7 minutes
Semi major axis: 7451 km
RCS: 0.0181 m2 (small)
Launch date: June 16, 1993
Source: Commonwealth of Independent States (former USSR) (CIS)
Launch site: PLESETSK MISSILE AND SPACE COMPLEX (PKMTR)

Note: This is SATELLITE DEBRIS
aabbcc
Your satellite tracking list
Your tracking list is empty




NASA's NSSDC Master Catalog

Two Line Element Set (TLE):
1 38054U 93036BRL 20025.05045105 +.00000103 +00000-0 +12130-3 0  9994
2 38054 073.9589 130.2989 0389344 165.6538 007.4766 13.49734936381023
Source of the keplerian elements: AFSPC